Tracking 30986 objects as of 9-Jul-2025
HD Live streaming from Space Station
objects crossing your sky now

OBJECT L

Track OBJECT L now!
10-day predictions


NORAD ID: 54692
Int'l Code: 2022-167L
Perigee: 493.0 km
Apogee: 504.0 km
Inclination: 97.7 °
Period: 94.4 minutes
Semi major axis: 6869 km
RCS: Unknown
Launch date: December 9, 2022
Source: People's Republic of China (PRC)
Launch site: Yellow Sea Launch Area, China (YSLA)
Your satellite tracking list
Your tracking list is empty




NASA's NSSDC Master Catalog

Two Line Element Set (TLE):
1 54692U 22167L   25189.95192468  .00006229  00000-0  25389-3 0  9992
2 54692  97.6609 343.4558 0008017 243.5447 116.4968 15.24808462142880
Source of the keplerian elements: AFSPC